TimeEST,TemperatureF,Dew PointF,Humidity,Sea Level PressureIn,VisibilityMPH,Wind Direction,Wind SpeedMPH,Gust SpeedMPH,PrecipitationIn,Events,Conditions,WindDirDegrees,DateUTC
12:15 AM,24.8,10.4,54,29.76,10.0,West,13.8,25.3,N/A,,Mostly Cloudy,280,2013-02-21 05:15:00
12:35 AM,24.8,10.4,54,29.77,10.0,West,12.7,26.5,N/A,,Scattered Clouds,270,2013-02-21 05:35:00
1:15 AM,24.8,12.2,59,29.77,10.0,West,13.8,20.7,N/A,,Mostly Cloudy,280,2013-02-21 06:15:00
1:35 AM,26.6,12.2,55,29.78,10.0,West,16.1,24.2,N/A,,Overcast,270,2013-02-21 06:35:00
2:35 AM,24.8,12.2,59,29.78,10.0,West,11.5,17.3,N/A,,Clear,270,2013-02-21 07:35:00
2:55 AM,24.8,10.4,54,29.78,10.0,West,12.7,20.7,N/A,,Scattered Clouds,260,2013-02-21 07:55:00
3:15 AM,24.8,10.4,54,29.78,10.0,WSW,9.2,17.3,N/A,,Mostly Cloudy,250,2013-02-21 08:15:00
3:35 AM,24.8,12.2,59,29.78,10.0,West,8.1,-,N/A,,Partly Cloudy,260,2013-02-21 08:35:00
3:55 AM,24.8,10.4,54,29.79,10.0,WSW,9.2,-,N/A,,Clear,250,2013-02-21 08:55:00
4:15 AM,24.8,10.4,54,29.79,10.0,West,8.1,-,N/A,,Clear,260,2013-02-21 09:15:00
4:35 AM,24.8,10.4,54,29.79,10.0,West,5.8,-,N/A,,Scattered Clouds,260,2013-02-21 09:35:00
5:15 AM,23.0,10.4,59,29.80,10.0,West,13.8,-,N/A,,Scattered Clouds,280,2013-02-21 10:15:00
5:35 AM,24.8,8.6,50,29.81,10.0,West,9.2,18.4,N/A,,Partly Cloudy,270,2013-02-21 10:35:00
5:55 AM,24.8,10.4,54,29.81,10.0,West,11.5,-,N/A,,Clear,270,2013-02-21 10:55:00
6:15 AM,23.0,8.6,54,29.80,10.0,West,9.2,19.6,N/A,,Clear,260,2013-02-21 11:15:00
6:55 AM,23.0,8.6,54,29.81,10.0,West,11.5,17.3,N/A,,Clear,280,2013-02-21 11:55:00
7:15 AM,23.0,8.6,54,29.80,10.0,West,12.7,19.6,N/A,,Partly Cloudy,280,2013-02-21 12:15:00
7:55 AM,24.8,8.6,50,29.81,10.0,West,17.3,25.3,N/A,,Overcast,270,2013-02-21 12:55:00
8:15 AM,24.8,8.6,50,29.81,10.0,WNW,16.1,25.3,N/A,,Overcast,290,2013-02-21 13:15:00
8:35 AM,24.8,8.6,50,29.80,10.0,WNW,10.4,29.9,N/A,,Scattered Clouds,290,2013-02-21 13:35:00
8:55 AM,24.8,8.6,50,29.81,10.0,WNW,16.1,23.0,N/A,,Clear,300,2013-02-21 13:55:00
11:35 AM,28.4,10.4,47,29.81,10.0,WNW,13.8,25.3,N/A,,Partly Cloudy,290,2013-02-21 16:35:00
11:55 AM,28.4,10.4,47,29.81,10.0,West,16.1,24.2,N/A,,Partly Cloudy,280,2013-02-21 16:55:00
12:35 PM,28.4,10.4,47,29.81,10.0,NW,20.7,28.8,N/A,,Partly Cloudy,310,2013-02-21 17:35:00
12:55 PM,28.4,10.4,47,29.81,10.0,WNW,18.4,25.3,N/A,,Clear,300,2013-02-21 17:55:00
1:15 PM,30.2,10.4,44,29.81,10.0,WNW,16.1,26.5,N/A,,Clear,300,2013-02-21 18:15:00
1:35 PM,30.2,10.4,44,29.81,10.0,WNW,12.7,21.9,N/A,,Clear,300,2013-02-21 18:35:00
2:15 PM,30.2,10.4,44,29.82,10.0,WNW,19.6,28.8,N/A,,Clear,300,2013-02-21 19:15:00
2:35 PM,30.2,10.4,44,29.82,10.0,NW,15.0,25.3,N/A,,Clear,310,2013-02-21 19:35:00
2:55 PM,30.2,10.4,44,29.83,10.0,NW,15.0,25.3,N/A,,Clear,310,2013-02-21 19:55:00
3:15 PM,30.2,10.4,44,29.83,10.0,WNW,15.0,26.5,N/A,,Clear,300,2013-02-21 20:15:00
3:35 PM,30.2,10.4,44,29.84,10.0,NW,13.8,24.2,N/A,,Clear,320,2013-02-21 20:35:00
3:55 PM,30.2,10.4,44,29.85,10.0,NW,15.0,28.8,N/A,,Clear,310,2013-02-21 20:55:00
4:15 PM,30.2,10.4,44,29.87,10.0,NW,13.8,23.0,N/A,,Clear,320,2013-02-21 21:15:00
4:35 PM,30.2,10.4,44,29.88,10.0,NW,18.4,25.3,N/A,,Clear,320,2013-02-21 21:35:00
6:15 PM,26.6,10.4,51,29.97,10.0,NNW,15.0,23.0,N/A,,Clear,340,2013-02-21 23:15:00
6:35 PM,26.6,8.6,47,29.98,10.0,NNW,19.6,27.6,N/A,,Clear,330,2013-02-21 23:35:00
6:55 PM,26.6,10.4,51,29.99,10.0,NNW,19.6,25.3,N/A,,Clear,330,2013-02-21 23:55:00
7:15 PM,26.6,10.4,51,30.01,10.0,NNW,20.7,27.6,N/A,,Clear,340,2013-02-22 00:15:00
7:35 PM,26.6,10.4,51,30.02,10.0,NNW,13.8,23.0,N/A,,Clear,330,2013-02-22 00:35:00
8:15 PM,24.8,10.4,54,30.04,10.0,NNW,16.1,23.0,N/A,,Clear,340,2013-02-22 01:15:00
8:35 PM,24.8,10.4,54,30.05,10.0,NNW,15.0,20.7,N/A,,Clear,330,2013-02-22 01:35:00
8:55 PM,24.8,10.4,54,30.07,10.0,NNW,13.8,18.4,N/A,,Clear,330,2013-02-22 01:55:00
9:15 PM,24.8,10.4,54,30.08,10.0,NNW,10.4,-,N/A,,Clear,330,2013-02-22 02:15:00
9:35 PM,24.8,12.2,59,30.09,10.0,NNW,11.5,-,N/A,,Clear,330,2013-02-22 02:35:00
9:55 PM,24.8,10.4,54,30.10,10.0,NW,9.2,-,N/A,,Clear,320,2013-02-22 02:55:00
10:35 PM,24.8,12.2,59,30.12,10.0,WNW,11.5,16.1,N/A,,Clear,300,2013-02-22 03:35:00
10:55 PM,24.8,12.2,59,30.13,10.0,WNW,9.2,-,N/A,,Clear,290,2013-02-22 03:55:00
11:15 PM,24.8,12.2,59,30.14,10.0,WNW,8.1,-,N/A,,Clear,300,2013-02-22 04:15:00
11:35 PM,24.8,12.2,59,30.16,10.0,WNW,8.1,-,N/A,,Clear,290,2013-02-22 04:35:00
11:55 PM,24.8,12.2,59,30.18,10.0,WNW,11.5,17.3,N/A,,Clear,300,2013-02-22 04:55:00